Regional Weather Roundup
Issued by NWS

Home | Current Version | Previous Version | Graphics & Text | Print | Product List | Glossary On
Versions: 1 2 3 4 5 6 7 8 9 10 11 12 13 14 15 16 17 18 19 20 21 22 23 24 25 26 27 28 29 30 31 32 33 34 35 36 37 38 39 40 41 42 43 44 45 46 47 48 49 50
000
ASUS43 KBIS 310520
RWRND

NORTH DAKOTA REGIONAL WEATHER ROUNDUP
NATIONAL WEATHER SERVICE BISMARCK ND
1200 AM CDT SUN AUG 31 2014

NOTE: "FAIR" INDICATES FEW OR NO CLOUDS BELOW 12,000 FEET WITH NO
SIGNIFICANT WEATHER AND/OR OBSTRUCTIONS TO VISIBILITY.


NDZ001>003-009>011-017-310600-
NORTHWEST NORTH DAKOTA

CITY           SKY/WX    TMP DP  RH WIND       PRES   REMARKS
WILLISTON      CLOUDY    60  58  92 NW3       29.69F
MINOT AFB      TSTM      63  59  88 E2        29.68R
$$

NDZ018>021-031>035-040>046-310600-
SOUTHWEST NORTH DAKOTA

CITY           SKY/WX    TMP DP  RH WIND       PRES   REMARKS
BISMARCK       RAIN      62  60  93 CALM      29.73R FOG
DICKINSON      LGT RAIN  62  60  93 S9        29.69S
GARRISON         N/A     63  60  90 SE9       29.69S
HETTINGER ARPT LGT RAIN  60  59  96 E15       29.71F
$$

NDZ004>008-012>016-024-026-027-054-310600-
NORTHEAST NORTH DAKOTA

CITY           SKY/WX    TMP DP  RH WIND       PRES   REMARKS
GRAND FORKS    CLEAR     59  57  93 S6        29.79R
GRND FRKS AFB  PTCLDY    58  57  99 S5        29.79R
DEVILS LAKE    MOCLDY    61  54  77 S10       29.74F
$$

NDZ022-023-025-028>030-036>039-047>053-310600-
SOUTHEAST NORTH DAKOTA

CITY           SKY/WX    TMP DP  RH WIND       PRES   REMARKS
FARGO          MOCLDY    62  58  86 S7        29.80R
JAMESTOWN      CLOUDY    60  58  92 SE10      29.75F
$$




USA.gov is the U.S. government's official web portal to all federal, state and local government web resources and services.